GW2696 Weather Reports


time (UTC)temp
F
wind
direction
speed
knots
gust
knots
rain 1hr
in
rain 24hr
in
rain mn
in
humidity
%
barometer
mb
20260504004219 68 158 5.2 9.6 0.00 0.00 0.00 23 1011.9
20260504003219 67 158 5.2 13.0 0.00 0.00 0.00 24 1011.5
20260504002219 66 135 2.6 4.3 0.00 0.00 0.00 25 1011.5
20260504001218 66 180 7.0 13.0 0.00 0.00 0.00 24 1011.7
20260504000219 67 203 12.2 15.6 0.00 0.00 0.00 24 1012.0
20260503235219 67 203 9.6 12.2 0.00 0.00 0.00 25 1012.3
20260503234219 67 203 7.0 11.3 0.00 0.00 0.00 26 1012.5
20260503233239 67 180 5.2 8.7 0.00 0.00 0.00 25 1012.4
20260503232218 68 180 5.2 10.4 0.00 0.00 0.00 24 1012.4
20260503231218 68 113 1.7 2.6 0.00 0.00 0.00 25 1012.4
20260503230218 68 203 8.7 13.9 0.00 0.00 0.00 25 1013.6
20260503225217 69 203 11.3 15.6 0.00 0.00 0.00 23 1013.4
20260503224218 70 158 4.3 10.4 0.00 0.00 0.00 24 1014.1
20260503223217 70 203 6.1 14.8 0.00 0.00 0.00 24 1014.6
20260503222238 71 180 7.0 9.6 0.00 0.00 0.00 23 1015.1
20260503221217 71 158 5.2 10.4 0.00 0.00 0.00 24 1015.2
20260503220218 71 180 3.5 7.8 0.00 0.00 0.00 23 1015.7
20260503215219 71 203 7.8 13.0 0.00 0.00 0.00 24 1016.1
20260503214217 71 203 8.7 12.2 0.00 0.00 0.00 25 1016.1
20260503213238 70 180 6.1 11.3 0.00 0.00 0.00 25 1016.9
20260503212218 71 180 10.4 18.2 0.00 0.00 0.00 25 1017.0
20260503211218 70 158 7.8 17.4 0.00 0.00 0.00 23 1017.3
20260503210217 72 203 12.2 18.2 0.00 0.00 0.00 21 1017.8
20260503205218 72 158 4.3 7.8 0.00 0.00 0.00 24 1017.9
20260503204218 71 135 3.5 5.2 0.00 0.00 0.00 23 1018.2
20260503203239 71 203 10.4 14.8 0.00 0.00 0.00 23 1018.4
20260503202218 70 203 9.6 14.8 0.00 0.00 0.00 24 1018.4
20260503201218 71 203 8.7 13.9 0.00 0.00 0.00 23 1018.6
20260503200238 70 158 4.3 9.6 0.00 0.00 0.00 24 1018.7
20260503195238 70 203 11.3 16.5 0.00 0.00 0.00 20 1018.7
20260503194218 69 203 7.8 10.4 0.00 0.00 0.00 26 1019.0
20260503193219 69 203 7.8 10.4 0.00 0.00 0.00 25 1019.2
20260503192218 68 203 7.8 10.4 0.00 0.00 0.00 27 1018.9
20260503191219 69 225 5.2 8.7 0.00 0.00 0.00 27 1019.5
20260503190218 71 203 10.4 14.8 0.00 0.00 0.00 24 1019.7
20260503185238 71 180 3.5 6.1 0.00 0.00 0.00 23 1020.0
20260503184218 71 90 3.5 5.2 0.00 0.00 0.00 24 1019.9
20260503183239 71 225 5.2 8.7 0.00 0.00 0.00 25 1020.1
20260503182218 71 135 2.6 5.2 0.00 0.00 0.00 24 1020.2
20260503181238 70 180 0.9 1.7 0.00 0.00 0.00 25 1019.9
20260503180218 70 135 1.7 5.2 0.00 0.00 0.00 24 1020.1
20260503175217 70 180 2.6 4.3 0.00 0.00 0.00 23 1020.2
20260503174217 69 293 0.9 3.5 0.00 0.00 0.00 25 1020.2
20260503173218 68 203 10.4 16.5 0.00 0.00 0.00 25 1019.8
20260503172239 68 180 2.6 3.5 0.00 0.00 0.00 27 1020.3
20260503171218 69 180 3.5 7.8 0.00 0.00 0.00 24 1020.6
20260503170218 68 203 3.5 5.2 0.00 0.00 0.00 28 1020.3
20260503160217 63 203 1.7 4.3 0.00 0.00 0.00 34 1020.2
20260503150238 58 180 6.1 7.8 0.00 0.00 0.00 38 1020.0
20260503140217 52 203 2.6 4.3 0.00 0.00 0.00 47 1020.8
20260503131238 41 225 1.7 5.2 0.00 0.00 0.00 59 1018.5
20260503130238 40 0.0 0.0 0.00 0.00 0.00 58 1018.4
20260503120218 41 0.0 0.0 0.00 0.00 0.00 57 1018.8
20260503110217 42 0.0 0.0 0.00 0.00 0.00 52 1018.7
20260503100219 47 0.0 0.0 0.00 0.00 0.00 44 1021.1
20260503090219 53 203 0.9 2.6 0.00 0.00 0.00 36 1021.7
20260503081218 54 248 0.9 2.6 0.00 0.00 0.00 35 1022.3
20260503080219 54 0.0 0.0 0.00 0.00 0.00 35 1022.5
20260503072219 56 203 3.5 3.5 0.00 0.00 0.00 34 1023.3
20260503071219 56 203 1.7 2.6 0.00 0.00 0.00 34 1023.0
20260503070345 55 203 3.5 5.2 0.00 0.00 0.00 35 1023.1
20260503060218 53 0.0 0.0 0.00 0.00 0.00 33 1022.0
20260503054217 53 0.0 0.0 0.00 0.00 0.00 31 1022.0
20260503053218 53 0.0 0.0 0.00 0.00 0.00 30 1021.5
20260503052218 53 0.0 0.0 0.00 0.00 0.00 29 1021.4
20260503051218 53 0.0 0.0 0.00 0.00 0.00 30 1021.4
20260503050238 53 0.0 0.0 0.00 0.00 0.00 29 1020.9
20260503045218 53 0.0 0.0 0.00 0.00 0.00 29 1020.9
20260503044217 53 0.0 0.0 0.00 0.00 0.00 29 1020.8
20260503043218 53 0.0 0.0 0.00 0.00 0.00 29 1020.6
20260503042218 53 0.0 0.0 0.00 0.00 0.00 29 1020.6
20260503041218 53 0.0 0.0 0.00 0.00 0.00 30 1020.5
20260503040238 53 0.0 0.0 0.00 0.00 0.00 30 1019.6
20260503035217 53 0.0 0.0 0.00 0.00 0.00 30 1019.6
20260503034218 53 0.0 0.0 0.00 0.00 0.00 30 1019.4
20260503033238 53 0.0 0.0 0.00 0.00 0.00 29 1018.6
20260503032218 53 0.0 0.0 0.00 0.00 0.00 29 1018.4
20260503031217 54 0.0 0.0 0.00 0.00 0.00 29 1018.2
20260503030218 54 0.0 0.0 0.00 0.00 0.00 28 1016.9
20260503025238 55 0.0 0.0 0.00 0.00 0.00 27 1016.6
20260503024217 56 0.0 0.0 0.00 0.00 0.00 26 1017.0
20260503023217 57 0.0 0.0 0.00 0.00 0.00 25 1016.0
20260503022238 59 0.0 0.0 0.00 0.00 0.00 24 1016.5
20260503021217 60 0.0 0.0 0.00 0.00 0.00 23 1016.4
20260503020217 61 0.0 0.0 0.00 0.00 0.00 22 1015.5
20260503015218 62 0.0 0.0 0.00 0.00 0.00 20 1015.9
20260503014217 63 0.0 0.0 0.00 0.00 0.00 20 1016.0
20260503013217 64 0.0 0.0 0.00 0.00 0.00 19 1015.9
20260503012238 64 0.0 0.0 0.00 0.00 0.00 19 1015.9
20260503011217 65 0.0 0.0 0.00 0.00 0.00 18 1016.5
20260503010217 66 0.0 0.0 0.00 0.00 0.00 18 1016.5
20260503005218 67 90 0.9 2.6 0.00 0.00 0.00 18 1016.9